Stanley, ND

11:37 PM CDT on March 28, 2017 (GMT -0500)
Stanley

Weather History for K08D - October, 2013

Change the Weather History Date:

Thursday, October 10, 2013

  Actual Average (KMIB) Record (KMIB)
Temperature  
Mean Temperature 50 °F -  
Max Temperature 62 °F 56 °F 84 °F (2015)
Min Temperature 37 °F 33 °F 25 °F (2014)
Degree Days  
Heating Degree Days 16    
Moisture  
Dew Point 43 °F    
Average Humidity 77    
Maximum Humidity 100    
Minimum Humidity 42    
Precipitation  
Precipitation 0.00 in - - ()
Sea Level Pressure  
Sea Level Pressure 29.82 in    
Wind  
Wind Speed 4 mph (East)    
Max Wind Speed 15 mph    
Max Gust Speed 17 mph    
Visibility 10 miles    
Events Rain    
Averages and records for this station are not official NWS values.
T = Trace of Precipitation, MM = Missing Value Source: NWS Daily Summary

Daily Weather History Graph

Daily Weather History Graph

Search for Another Location

Airport or City:

Trip Planner

Search our weather history database for the weather conditions in past years. The results will help you decide how hot, cold, wet, or windy it might be!

Date:

Astronomy

Oct. 10, 2013 Rise Set
Actual Time 8:02 AM CDT 7:09 PM CDT
Civil Twilight 7:31 AM CDT 7:41 PM CDT
Nautical Twilight 6:54 AM CDT 8:17 PM CDT
Astronomical Twilight 6:18 AM CDT 8:53 PM CDT
Moon 2:13 PM CDT (10/10) 11:33 PM CDT (10/10)
Length of Visible Light 12h 10m
Length of Day
11h 07m
Waxing Crescent, 36% of the Moon is Illuminated
Oct 10
Waxing Crescent
Oct 11
First Quarter
Oct 18
Full
Oct 26
Last Quarter
Nov 3
New

Hourly Weather History & Observations

Time (CDT) Temp. Windchill Dew Point Humidity Pressure Visibility Wind Dir Wind Speed Gust Speed Precip Events Conditions
12:15 AM 41.0 °F - 41.0 °F 100% 30.00 in 10.0 mi Calm Calm - N/A   Overcast
12:35 AM 42.8 °F 41.1 °F 41.0 °F 93% 30.00 in 10.0 mi SW 3.5 mph - N/A   Overcast
12:55 AM 42.8 °F - 42.8 °F 100% 30.00 in 10.0 mi Calm Calm - N/A Rain Light Rain
1:15 AM 42.8 °F - 42.8 °F 100% 30.00 in 10.0 mi Calm Calm - N/A   Overcast
1:35 AM 44.6 °F 42.2 °F 42.8 °F 93% 29.99 in 10.0 mi East 4.6 mph - N/A   Overcast
1:55 AM 46.4 °F - 42.8 °F 87% 29.98 in 10.0 mi Calm Calm - N/A   Overcast
2:15 AM 46.4 °F 44.3 °F 41.0 °F 81% 29.97 in 10.0 mi East 4.6 mph - N/A   Overcast
2:35 AM 46.4 °F 45.2 °F 42.8 °F 87% 29.96 in 10.0 mi ENE 3.5 mph - N/A   Overcast
2:55 AM 46.4 °F 44.3 °F 42.8 °F 87% 29.96 in 10.0 mi East 4.6 mph - N/A   Overcast
3:15 AM 46.4 °F - 41.0 °F 81% 29.95 in 10.0 mi Calm Calm - N/A   Overcast
3:35 AM 46.4 °F - 42.8 °F 87% 29.95 in 10.0 mi Calm Calm - N/A   Overcast
3:55 AM 46.4 °F 45.2 °F 42.8 °F 87% 29.94 in 10.0 mi ENE 3.5 mph - N/A   Overcast
4:15 AM 46.4 °F - 42.8 °F 87% 29.94 in 10.0 mi Calm Calm - N/A   Overcast
4:35 AM 46.4 °F 45.2 °F 42.8 °F 87% 29.93 in 10.0 mi NE 3.5 mph - N/A   Overcast
4:55 AM 41.0 °F 38.0 °F 41.0 °F 100% 29.94 in 10.0 mi NNE 4.6 mph - N/A   Scattered Clouds
5:15 AM 41.0 °F 39.0 °F 41.0 °F 100% 29.93 in 10.0 mi NNE 3.5 mph - N/A   Scattered Clouds
5:35 AM 41.0 °F 39.0 °F 41.0 °F 100% 29.92 in 10.0 mi NE 3.5 mph - N/A   Mostly Cloudy
5:55 AM 41.0 °F 37.1 °F 41.0 °F 100% 29.92 in 10.0 mi NE 5.8 mph - N/A   Mostly Cloudy
6:15 AM 42.8 °F 40.1 °F 41.0 °F 93% 29.91 in 10.0 mi ENE 4.6 mph - N/A   Overcast
6:35 AM 41.0 °F 39.0 °F 41.0 °F 100% 29.91 in 10.0 mi NE 3.5 mph - N/A   Mostly Cloudy
6:55 AM 41.0 °F 38.0 °F 41.0 °F 100% 29.90 in 10.0 mi East 4.6 mph - N/A   Partly Cloudy
7:15 AM 41.0 °F 38.0 °F 41.0 °F 100% 29.90 in 10.0 mi East 4.6 mph - N/A   Clear
7:35 AM 41.0 °F 37.1 °F 41.0 °F 100% 29.89 in 10.0 mi East 5.8 mph - N/A   Clear
7:55 AM 39.2 °F 37.0 °F 39.2 °F 100% 29.89 in 10.0 mi East 3.5 mph - N/A   Clear
8:15 AM 39.2 °F - 39.2 °F 100% 29.89 in 10.0 mi Calm Calm - N/A   Clear
8:35 AM 37.4 °F - 37.4 °F 100% 29.89 in 10.0 mi Calm Calm - N/A   Partly Cloudy
8:55 AM 41.0 °F - 41.0 °F 100% 29.89 in 10.0 mi Calm Calm - N/A   Mostly Cloudy
9:15 AM 44.6 °F 43.1 °F 42.8 °F 93% 29.89 in 10.0 mi ESE 3.5 mph - N/A   Overcast
9:35 AM 44.6 °F 42.2 °F 44.6 °F 100% 29.88 in 10.0 mi East 4.6 mph - N/A   Overcast
9:55 AM 46.4 °F 43.5 °F 44.6 °F 93% 29.88 in 10.0 mi SE 5.8 mph - N/A   Partly Cloudy
10:15 AM 46.4 °F - 44.6 °F 93% 29.87 in 10.0 mi Calm Calm - N/A   Clear
10:35 AM 48.2 °F - 44.6 °F 87% 29.86 in 10.0 mi East 6.9 mph - N/A   Clear
10:55 AM 50.0 °F - 44.6 °F 82% 29.85 in 10.0 mi ESE 6.9 mph - N/A   Clear
11:15 AM 53.6 °F - 42.8 °F 67% 29.84 in 10.0 mi ESE 8.1 mph - N/A   Clear
11:35 AM 53.6 °F - 42.8 °F 67% 29.83 in 10.0 mi ESE 6.9 mph - N/A   Clear
11:55 AM 57.2 °F - 41.0 °F 55% 29.83 in 10.0 mi ESE 8.1 mph - N/A   Clear
12:15 PM 57.2 °F - 41.0 °F 55% 29.81 in 3.0 mi ESE 10.4 mph - N/A   Haze
12:35 PM 57.2 °F - 41.0 °F 55% 29.81 in 10.0 mi SE 15.0 mph - N/A   Clear
12:55 PM 59.0 °F - 41.0 °F 51% 29.80 in 10.0 mi ESE 11.5 mph 16.1 mph N/A   Clear
1:15 PM 60.8 °F - 41.0 °F 48% 29.80 in 10.0 mi SE 15.0 mph - N/A   Clear
1:35 PM 59.0 °F - 41.0 °F 51% 29.78 in 10.0 mi SE 11.5 mph 16.1 mph N/A   Clear
1:55 PM 60.8 °F - 41.0 °F 48% 29.78 in 1.8 mi ESE 12.7 mph 17.3 mph N/A   Haze
2:15 PM 60.8 °F - 39.2 °F 45% 29.77 in 8.0 mi ESE 12.7 mph - N/A   Clear
2:35 PM 59.0 °F - 39.2 °F 48% 29.76 in 10.0 mi ESE 10.4 mph - N/A   Clear
2:55 PM 62.6 °F - 41.0 °F 45% 29.75 in 10.0 mi SE 8.1 mph - N/A   Clear
3:15 PM 62.6 °F - 39.2 °F 42% 29.74 in 10.0 mi SE 11.5 mph 16.1 mph N/A   Clear
3:35 PM 62.6 °F - 41.0 °F 45% 29.73 in 10.0 mi SE 12.7 mph 17.3 mph N/A   Clear
3:55 PM 62.6 °F - 41.0 °F 45% 29.73 in 10.0 mi ESE 10.4 mph 17.3 mph N/A   Clear
4:15 PM 62.6 °F - 41.0 °F 45% 29.73 in 10.0 mi SE 11.5 mph - N/A   Clear
4:35 PM 60.8 °F - 41.0 °F 48% 29.73 in 10.0 mi ESE 10.4 mph - N/A   Clear
4:55 PM 60.8 °F - 41.0 °F 48% 29.72 in 10.0 mi ESE 10.4 mph - N/A   Clear
5:15 PM 59.0 °F - 42.8 °F 55% 29.72 in 10.0 mi East 8.1 mph - N/A   Clear
5:35 PM 59.0 °F - 44.6 °F 59% 29.72 in 10.0 mi East 6.9 mph - N/A   Clear
5:55 PM 59.0 °F - 44.6 °F 59% 29.72 in 10.0 mi East 9.2 mph - N/A   Clear
6:15 PM 59.0 °F - 42.8 °F 55% 29.71 in 10.0 mi East 9.2 mph - N/A   Clear
6:35 PM 57.2 °F - 42.8 °F 59% 29.71 in 10.0 mi East 8.1 mph - N/A   Clear
6:55 PM 57.2 °F - 44.6 °F 63% 29.70 in 10.0 mi East 6.9 mph - N/A   Clear
7:15 PM 55.4 °F - 44.6 °F 67% 29.70 in 10.0 mi East 5.8 mph - N/A   Clear
7:35 PM 55.4 °F - 44.6 °F 67% 29.69 in 10.0 mi ENE 5.8 mph - N/A   Clear
7:55 PM 55.4 °F - 44.6 °F 67% 29.70 in 10.0 mi East 5.8 mph - N/A   Clear
8:15 PM 53.6 °F - 44.6 °F 72% 29.71 in 10.0 mi East 4.6 mph - N/A   Clear
8:35 PM 53.6 °F - 44.6 °F 72% 29.70 in 10.0 mi ENE 3.5 mph - N/A   Partly Cloudy
8:55 PM 53.6 °F - 44.6 °F 72% 29.69 in 10.0 mi NE 3.5 mph - N/A   Mostly Cloudy
9:15 PM 51.8 °F - 46.4 °F 82% 29.68 in 10.0 mi NE 4.6 mph - N/A   Mostly Cloudy
9:35 PM 53.6 °F - 44.6 °F 72% 29.68 in 10.0 mi NE 5.8 mph - N/A   Overcast
9:55 PM 53.6 °F - 44.6 °F 72% 29.68 in 10.0 mi Calm Calm - N/A   Overcast
10:15 PM 50.0 °F - 46.4 °F 87% 29.69 in 10.0 mi Calm Calm - N/A   Overcast
10:35 PM 51.8 °F - 46.4 °F 82% 29.69 in 10.0 mi Calm Calm - N/A   Overcast
10:55 PM 51.8 °F - 46.4 °F 82% 29.69 in 10.0 mi Calm Calm - N/A   Overcast
11:15 PM 50.0 °F - 48.2 °F 94% 29.70 in 10.0 mi NNW 3.5 mph - N/A   Overcast
11:35 PM 51.8 °F - 48.2 °F 88% 29.69 in 10.0 mi Calm Calm - N/A   Overcast
11:55 PM 51.8 °F - 50.0 °F 94% 29.68 in 10.0 mi North 4.6 mph - N/A   Overcast